Time,TemperatureF,DewpointF,PressureIn,WindDirection,WindDirectionDegrees,WindSpeedMPH,WindSpeedGustMPH,Humidity,HourlyPrecipIn,Conditions,Clouds,dailyrainin,SoftwareType,DateUTC
2013-07-21 00:00:00,60.0,46.0,30.00,SE,135,2.0,10.0,60,0.00,,,-99.99,Weather View 32 v60,2013-07-21 05:00:00,
2013-07-21 00:05:00,60.0,46.0,30.00,East,90,3.0,10.0,60,0.00,,,-99.99,Weather View 32 v60,2013-07-21 05:05:00,
2013-07-21 00:10:00,60.0,46.0,30.00,East,90,5.0,10.0,60,0.00,,,-99.99,Weather View 32 v60,2013-07-21 05:10:00,
2013-07-21 00:15:00,60.0,46.0,30.00,ESE,112,2.0,9.0,60,0.00,,,-99.99,Weather View 32 v60,2013-07-21 05:15:00,
2013-07-21 00:20:00,60.0,46.0,30.00,ESE,112,2.0,9.0,60,0.00,,,-99.99,Weather View 32 v60,2013-07-21 05:20:00,
2013-07-21 00:25:00,60.0,46.0,30.00,East,90,2.0,9.0,60,0.00,,,-99.99,Weather View 32 v60,2013-07-21 05:25:00,
2013-07-21 00:30:00,60.0,46.0,30.00,West,270,1.0,9.0,60,0.00,,,-99.99,Weather View 32 v60,2013-07-21 05:30:00,
2013-07-21 00:35:00,60.0,46.0,30.00,East,90,2.0,9.0,60,0.00,,,-99.99,Weather View 32 v60,2013-07-21 05:35:00,
2013-07-21 00:40:00,60.0,46.5,30.00,SSE,158,2.0,9.0,61,0.00,,,-99.99,Weather View 32 v60,2013-07-21 05:40:00,
2013-07-21 00:45:00,60.0,46.5,30.00,SSW,202,1.0,9.0,61,0.00,,,-99.99,Weather View 32 v60,2013-07-21 05:45:00,
2013-07-21 00:50:00,60.0,46.5,30.00,SSW,202,1.0,9.0,61,0.00,,,-99.99,Weather View 32 v60,2013-07-21 05:50:00,
2013-07-21 00:55:00,60.0,46.5,30.00,SSE,158,2.0,9.0,61,0.00,,,-99.99,Weather View 32 v60,2013-07-21 05:55:00,
2013-07-21 01:00:00,60.0,46.5,30.00,SSE,158,2.0,9.0,61,0.00,,,-99.99,Weather View 32 v60,2013-07-21 06:00:00,
2013-07-21 01:05:00,60.0,46.0,29.99,ESE,112,3.0,9.0,60,0.00,,,-99.99,Weather View 32 v60,2013-07-21 06:05:00,
2013-07-21 01:10:00,61.0,47.0,30.00,SSE,158,1.0,9.0,60,0.00,,,-99.99,Weather View 32 v60,2013-07-21 06:10:00,
2013-07-21 01:15:00,61.0,47.0,29.99,ESE,112,3.0,9.0,60,0.00,,,-99.99,Weather View 32 v60,2013-07-21 06:15:00,
2013-07-21 01:20:00,61.0,47.0,29.99,SSE,158,1.0,6.0,60,0.00,,,-99.99,Weather View 32 v60,2013-07-21 06:20:00,
2013-07-21 01:25:00,60.0,46.5,29.99,ENE,68,2.0,6.0,61,0.00,,,-99.99,Weather View 32 v60,2013-07-21 06:25:00,
2013-07-21 01:30:00,60.0,46.5,29.99,East,90,2.0,6.0,61,0.00,,,-99.99,Weather View 32 v60,2013-07-21 06:30:00,
2013-07-21 01:35:00,60.0,46.5,29.99,ESE,112,1.0,6.0,61,0.00,,,-99.99,Weather View 32 v60,2013-07-21 06:35:00,
2013-07-21 01:40:00,60.0,46.9,29.99,ESE,112,2.0,6.0,62,0.00,,,-99.99,Weather View 32 v60,2013-07-21 06:40:00,
2013-07-21 01:45:00,60.0,46.9,29.99,SSE,158,3.0,7.0,62,0.00,,,-99.99,Weather View 32 v60,2013-07-21 06:45:00,
2013-07-21 01:50:00,60.0,46.9,29.99,ESE,112,2.0,7.0,62,0.00,,,-99.99,Weather View 32 v60,2013-07-21 06:50:00,
2013-07-21 01:55:00,60.0,46.9,29.99,East,90,5.0,7.0,62,0.00,,,-99.99,Weather View 32 v60,2013-07-21 06:55:00,
2013-07-21 02:00:00,60.0,46.9,29.99,SSE,158,2.0,7.0,62,0.00,,,-99.99,Weather View 32 v60,2013-07-21 07:00:00,
2013-07-21 02:05:00,60.0,46.9,29.99,SE,135,1.0,7.0,62,0.00,,,-99.99,Weather View 32 v60,2013-07-21 07:05:00,
2013-07-21 02:10:00,60.0,46.9,29.99,South,180,0.0,7.0,62,0.00,,,-99.99,Weather View 32 v60,2013-07-21 07:10:00,
2013-07-21 02:15:00,59.0,46.0,29.98,ENE,68,1.0,7.0,62,0.00,,,-99.99,Weather View 32 v60,2013-07-21 07:15:00,
2013-07-21 02:20:00,59.0,46.0,29.98,SW,225,1.0,7.0,62,0.00,,,-99.99,Weather View 32 v60,2013-07-21 07:20:00,
2013-07-21 02:25:00,59.0,46.4,29.98,SSE,158,0.0,7.0,63,0.00,,,-99.99,Weather View 32 v60,2013-07-21 07:25:00,
2013-07-21 02:30:00,58.0,45.4,29.98,South,180,1.0,7.0,63,0.00,,,-99.99,Weather View 32 v60,2013-07-21 07:30:00,
2013-07-21 02:35:00,58.0,45.4,29.98,South,180,1.0,7.0,63,0.00,,,-99.99,Weather View 32 v60,2013-07-21 07:35:00,
2013-07-21 02:45:00,57.0,45.3,29.98,SSW,202,0.0,6.0,65,0.00,,,-99.99,Weather View 32 v60,2013-07-21 07:45:00,
2013-07-21 02:50:00,57.0,45.7,29.98,SSW,202,0.0,6.0,66,0.00,,,-99.99,Weather View 32 v60,2013-07-21 07:50:00,
2013-07-21 02:55:00,57.0,45.7,29.98,SSW,202,0.0,6.0,66,0.00,,,-99.99,Weather View 32 v60,2013-07-21 07:55:00,
2013-07-21 03:00:00,56.0,45.2,29.98,SSE,158,1.0,5.0,67,0.00,,,-99.99,Weather View 32 v60,2013-07-21 08:00:00,
2013-07-21 03:05:00,56.0,45.2,29.98,SE,135,1.0,5.0,67,0.00,,,-99.99,Weather View 32 v60,2013-07-21 08:05:00,
2013-07-21 03:15:00,56.0,46.0,29.98,SE,135,1.0,5.0,69,0.00,,,-99.99,Weather View 32 v60,2013-07-21 08:15:00,
2013-07-21 03:25:00,55.0,45.4,29.98,South,180,1.0,3.0,70,0.00,,,-99.99,Weather View 32 v60,2013-07-21 08:25:00,
2013-07-21 03:30:00,55.0,45.4,29.98,SW,225,0.0,3.0,70,0.00,,,-99.99,Weather View 32 v60,2013-07-21 08:30:00,
2013-07-21 03:35:00,54.0,44.8,29.98,SE,135,0.0,3.0,71,0.00,,,-99.99,Weather View 32 v60,2013-07-21 08:35:00,
2013-07-21 03:40:00,54.0,44.8,29.98,SSE,158,0.0,3.0,71,0.00,,,-99.99,Weather View 32 v60,2013-07-21 08:40:00,
2013-07-21 03:45:00,54.0,45.2,29.98,South,180,0.0,3.0,72,0.00,,,-99.99,Weather View 32 v60,2013-07-21 08:45:00,
2013-07-21 03:50:00,54.0,45.5,29.98,West,270,0.0,3.0,73,0.00,,,-99.99,Weather View 32 v60,2013-07-21 08:50:00,
2013-07-21 03:55:00,54.0,45.5,29.98,South,180,1.0,3.0,73,0.00,,,-99.99,Weather View 32 v60,2013-07-21 08:55:00,
2013-07-21 04:00:00,54.0,45.9,29.97,East,90,3.0,4.0,74,0.00,,,-99.99,Weather View 32 v60,2013-07-21 09:00:00,
2013-07-21 04:05:00,54.0,45.9,29.97,East,90,2.0,6.0,74,0.00,,,-99.99,Weather View 32 v60,2013-07-21 09:05:00,
2013-07-21 04:10:00,53.0,44.9,29.97,ENE,68,2.0,6.0,74,0.00,,,-99.99,Weather View 32 v60,2013-07-21 09:10:00,
2013-07-21 04:15:00,53.0,44.9,29.97,ESE,112,1.0,6.0,74,0.00,,,-99.99,Weather View 32 v60,2013-07-21 09:15:00,
2013-07-21 04:20:00,54.0,45.9,29.97,SSE,158,1.0,6.0,74,0.00,,,-99.99,Weather View 32 v60,2013-07-21 09:20:00,
2013-07-21 04:25:00,54.0,45.9,29.97,SE,135,3.0,6.0,74,0.00,,,-99.99,Weather View 32 v60,2013-07-21 09:25:00,
2013-07-21 04:30:00,54.0,45.9,29.97,East,90,3.0,6.0,74,0.00,,,-99.99,Weather View 32 v60,2013-07-21 09:30:00,
2013-07-21 04:35:00,54.0,45.9,29.97,SE,135,3.0,6.0,74,0.00,,,-99.99,Weather View 32 v60,2013-07-21 09:35:00,
2013-07-21 04:40:00,54.0,45.5,29.97,SE,135,3.0,7.0,73,0.00,,,-99.99,Weather View 32 v60,2013-07-21 09:40:00,
2013-07-21 04:45:00,54.0,45.5,29.97,SE,135,1.0,7.0,73,0.00,,,-99.99,Weather View 32 v60,2013-07-21 09:45:00,
2013-07-21 04:50:00,54.0,45.5,29.97,South,180,1.0,7.0,73,0.00,,,-99.99,Weather View 32 v60,2013-07-21 09:50:00,
2013-07-21 04:55:00,54.0,45.2,29.97,East,90,4.0,7.0,72,0.00,,,-99.99,Weather View 32 v60,2013-07-21 09:55:00,
2013-07-21 05:00:00,54.0,45.2,29.97,East,90,2.0,7.0,72,0.00,,,-99.99,Weather View 32 v60,2013-07-21 10:00:00,
2013-07-21 05:05:00,54.0,45.2,29.96,East,90,2.0,7.0,72,0.00,,,-99.99,Weather View 32 v60,2013-07-21 10:05:00,
2013-07-21 05:10:00,54.0,45.2,29.97,East,90,3.0,7.0,72,0.00,,,-99.99,Weather View 32 v60,2013-07-21 10:10:00,
2013-07-21 05:20:00,54.0,45.2,29.97,East,90,4.0,7.0,72,0.00,,,-99.99,Weather View 32 v60,2013-07-21 10:20:00,
2013-07-21 05:25:00,54.0,45.2,29.97,East,90,4.0,7.0,72,0.00,,,-99.99,Weather View 32 v60,2013-07-21 10:25:00,
2013-07-21 05:30:00,53.0,44.2,29.97,South,180,1.0,7.0,72,0.00,,,-99.99,Weather View 32 v60,2013-07-21 10:30:00,
2013-07-21 05:35:00,53.0,44.6,29.97,South,180,1.0,7.0,73,0.00,,,-99.99,Weather View 32 v60,2013-07-21 10:35:00,
2013-07-21 05:45:00,53.0,44.6,29.97,ESE,112,3.0,6.0,73,0.00,,,-99.99,Weather View 32 v60,2013-07-21 10:45:00,
2013-07-21 05:50:00,53.0,44.9,29.97,East,90,3.0,6.0,74,0.00,,,-99.99,Weather View 32 v60,2013-07-21 10:50:00,
2013-07-21 05:55:00,53.0,44.9,29.97,SE,135,2.0,6.0,74,0.00,,,-99.99,Weather View 32 v60,2013-07-21 10:55:00,
2013-07-21 06:00:00,53.0,44.9,29.98,SSE,158,4.0,6.0,74,0.00,,,-99.99,Weather View 32 v60,2013-07-21 11:00:00,
2013-07-21 06:10:00,53.0,44.9,29.98,South,180,2.0,6.0,74,0.00,,,-99.99,Weather View 32 v60,2013-07-21 11:10:00,
2013-07-21 06:15:00,53.0,44.9,29.98,ENE,68,1.0,6.0,74,0.00,,,-99.99,Weather View 32 v60,2013-07-21 11:15:00,
2013-07-21 06:20:00,54.0,45.9,29.98,SSW,202,1.0,6.0,74,0.00,,,-99.99,Weather View 32 v60,2013-07-21 11:20:00,
2013-07-21 06:30:00,54.0,45.5,29.98,SSW,202,2.0,6.0,73,0.00,,,-99.99,Weather View 32 v60,2013-07-21 11:30:00,
2013-07-21 06:35:00,54.0,45.5,29.98,East,90,4.0,6.0,73,0.00,,,-99.99,Weather View 32 v60,2013-07-21 11:35:00,
2013-07-21 06:40:00,55.0,46.5,29.98,SSW,202,1.0,6.0,73,0.00,,,-99.99,Weather View 32 v60,2013-07-21 11:40:00,
2013-07-21 06:45:00,55.0,46.5,29.98,NE,45,1.0,6.0,73,0.00,,,-99.99,Weather View 32 v60,2013-07-21 11:45:00,
2013-07-21 06:50:00,56.0,47.1,29.98,East,90,2.0,6.0,72,0.00,,,-99.99,Weather View 32 v60,2013-07-21 11:50:00,
2013-07-21 07:00:00,56.0,46.7,29.98,SE,135,2.0,7.0,71,0.00,,,-99.99,Weather View 32 v60,2013-07-21 12:00:00,
2013-07-21 07:05:00,57.0,47.7,29.98,ESE,112,5.0,7.0,71,0.00,,,-99.99,Weather View 32 v60,2013-07-21 12:05:00,
2013-07-21 07:10:00,57.0,47.3,29.98,SE,135,4.0,7.0,70,0.00,,,-99.99,Weather View 32 v60,2013-07-21 12:10:00,
2013-07-21 07:15:00,57.0,47.3,29.98,East,90,2.0,7.0,70,0.00,,,-99.99,Weather View 32 v60,2013-07-21 12:15:00,
2013-07-21 07:20:00,57.0,46.9,29.98,East,90,2.0,8.0,69,0.00,,,-99.99,Weather View 32 v60,2013-07-21 12:20:00,
2013-07-21 07:25:00,58.0,47.9,29.98,ESE,112,8.0,8.0,69,0.00,,,-99.99,Weather View 32 v60,2013-07-21 12:25:00,
2013-07-21 07:30:00,58.0,47.5,29.98,East,90,3.0,9.0,68,0.00,,,-99.99,Weather View 32 v60,2013-07-21 12:30:00,
2013-07-21 07:35:00,58.0,47.5,29.98,ESE,112,3.0,9.0,68,0.00,,,-99.99,Weather View 32 v60,2013-07-21 12:35:00,
2013-07-21 07:40:00,58.0,47.5,29.98,SE,135,4.0,9.0,68,0.00,,,-99.99,Weather View 32 v60,2013-07-21 12:40:00,
2013-07-21 07:45:00,59.0,48.0,29.98,ESE,112,1.0,9.0,67,0.00,,,-99.99,Weather View 32 v60,2013-07-21 12:45:00,
2013-07-21 07:50:00,59.0,48.0,29.98,ESE,112,1.0,9.0,67,0.00,,,-99.99,Weather View 32 v60,2013-07-21 12:50:00,
2013-07-21 07:55:00,59.0,47.6,29.98,East,90,6.0,10.0,66,0.00,,,-99.99,Weather View 32 v60,2013-07-21 12:55:00,
2013-07-21 08:00:00,60.0,48.2,29.98,ESE,112,3.0,10.0,65,0.00,,,-99.99,Weather View 32 v60,2013-07-21 13:00:00,
2013-07-21 08:05:00,60.0,48.2,29.98,SE,135,2.0,10.0,65,0.00,,,-99.99,Weather View 32 v60,2013-07-21 13:05:00,
2013-07-21 08:10:00,60.0,48.2,29.98,East,90,3.0,10.0,65,0.00,,,-99.99,Weather View 32 v60,2013-07-21 13:10:00,
2013-07-21 08:15:00,61.0,49.1,29.98,NNW,338,3.0,10.0,65,0.00,,,-99.99,Weather View 32 v60,2013-07-21 13:15:00,
2013-07-21 08:20:00,62.0,50.1,29.98,SW,225,0.0,10.0,65,0.00,,,-99.99,Weather View 32 v60,2013-07-21 13:20:00,
2013-07-21 08:25:00,63.0,51.0,29.98,ESE,112,2.0,10.0,65,0.00,,,-99.99,Weather View 32 v60,2013-07-21 13:25:00,
2013-07-21 08:30:00,64.0,50.7,29.98,SSE,158,1.0,10.0,62,0.00,,,-99.99,Weather View 32 v60,2013-07-21 13:30:00,
2013-07-21 08:35:00,64.0,50.7,29.98,East,90,1.0,10.0,62,0.00,,,-99.99,Weather View 32 v60,2013-07-21 13:35:00,
2013-07-21 08:40:00,64.0,50.7,29.98,ESE,112,3.0,10.0,62,0.00,,,-99.99,Weather View 32 v60,2013-07-21 13:40:00,
2013-07-21 08:45:00,65.0,51.6,29.98,East,90,4.0,10.0,62,0.00,,,-99.99,Weather View 32 v60,2013-07-21 13:45:00,
2013-07-21 08:50:00,65.0,51.2,29.98,SE,135,6.0,10.0,61,0.00,,,-99.99,Weather View 32 v60,2013-07-21 13:50:00,
2013-07-21 08:55:00,66.0,51.7,29.98,SE,135,5.0,8.0,60,0.00,,,-99.99,Weather View 32 v60,2013-07-21 13:55:00,
2013-07-21 09:00:00,66.0,51.7,29.97,SSE,158,5.0,9.0,60,0.00,,,-99.99,Weather View 32 v60,2013-07-21 14:00:00,
2013-07-21 09:05:00,66.0,51.7,29.97,SE,135,2.0,9.0,60,0.00,,,-99.99,Weather View 32 v60,2013-07-21 14:05:00,
2013-07-21 09:10:00,67.0,52.2,29.98,SSE,158,5.0,9.0,59,0.00,,,-99.99,Weather View 32 v60,2013-07-21 14:10:00,
2013-07-21 09:20:00,68.0,53.1,29.97,SSE,158,2.0,9.0,59,0.00,,,-99.99,Weather View 32 v60,2013-07-21 14:20:00,
2013-07-21 09:25:00,68.0,53.1,29.97,SSW,202,5.0,9.0,59,0.00,,,-99.99,Weather View 32 v60,2013-07-21 14:25:00,
2013-07-21 09:30:00,69.0,54.0,29.97,SE,135,6.0,9.0,59,0.00,,,-99.99,Weather View 32 v60,2013-07-21 14:30:00,
2013-07-21 09:35:00,69.0,54.0,29.97,ESE,112,1.0,9.0,59,0.00,,,-99.99,Weather View 32 v60,2013-07-21 14:35:00,
2013-07-21 09:45:00,70.0,54.0,29.97,SSE,158,5.0,9.0,57,0.00,,,-99.99,Weather View 32 v60,2013-07-21 14:45:00,
2013-07-21 09:50:00,70.0,53.5,29.97,East,90,3.0,9.0,56,0.00,,,-99.99,Weather View 32 v60,2013-07-21 14:50:00,
2013-07-21 09:55:00,71.0,55.0,29.97,South,180,4.0,9.0,57,0.00,,,-99.99,Weather View 32 v60,2013-07-21 14:55:00,
2013-07-21 10:00:00,71.0,54.5,29.97,South,180,3.0,9.0,56,0.00,,,-99.99,Weather View 32 v60,2013-07-21 15:00:00,
2013-07-21 10:05:00,70.0,54.0,29.97,SW,225,1.0,9.0,57,0.00,,,-99.99,Weather View 32 v60,2013-07-21 15:05:00,
2013-07-21 10:10:00,71.0,55.4,29.97,SSE,158,2.0,9.0,58,0.00,,,-99.99,Weather View 32 v60,2013-07-21 15:10:00,
2013-07-21 10:15:00,71.0,55.0,29.97,East,90,5.0,9.0,57,0.00,,,-99.99,Weather View 32 v60,2013-07-21 15:15:00,
2013-07-21 10:20:00,72.0,55.9,29.97,SSE,158,4.0,9.0,57,0.00,,,-99.99,Weather View 32 v60,2013-07-21 15:20:00,
2013-07-21 10:25:00,72.0,55.4,29.97,South,180,2.0,9.0,56,0.00,,,-99.99,Weather View 32 v60,2013-07-21 15:25:00,
2013-07-21 10:30:00,72.0,55.9,29.97,South,180,3.0,9.0,57,0.00,,,-99.99,Weather View 32 v60,2013-07-21 15:30:00,
2013-07-21 10:35:00,73.0,56.8,29.97,SSE,158,4.0,9.0,57,0.00,,,-99.99,Weather View 32 v60,2013-07-21 15:35:00,
2013-07-21 10:40:00,73.0,56.8,29.97,SSW,202,3.0,8.0,57,0.00,,,-99.99,Weather View 32 v60,2013-07-21 15:40:00,
2013-07-21 10:50:00,73.0,56.3,29.97,ESE,112,5.0,8.0,56,0.00,,,-99.99,Weather View 32 v60,2013-07-21 15:50:00,
2013-07-21 10:55:00,73.0,56.8,29.97,WSW,248,1.0,8.0,57,0.00,,,-99.99,Weather View 32 v60,2013-07-21 15:55:00,
2013-07-21 11:00:00,73.0,56.8,29.96,SW,225,3.0,8.0,57,0.00,,,-99.99,Weather View 32 v60,2013-07-21 16:00:00,
2013-07-21 11:05:00,73.0,56.8,29.96,NE,45,1.0,8.0,57,0.00,,,-99.99,Weather View 32 v60,2013-07-21 16:05:00,
2013-07-21 11:15:00,74.0,58.2,29.96,SSE,158,7.0,8.0,58,0.00,,,-99.99,Weather View 32 v60,2013-07-21 16:15:00,
2013-07-21 11:20:00,75.0,58.7,29.95,SSE,158,3.0,8.0,57,0.00,,,-99.99,Weather View 32 v60,2013-07-21 16:20:00,
2013-07-21 11:25:00,75.0,58.7,29.96,South,180,3.0,10.0,57,0.00,,,-99.99,Weather View 32 v60,2013-07-21 16:25:00,
2013-07-21 11:30:00,75.0,58.2,29.95,SSE,158,5.0,10.0,56,0.00,,,-99.99,Weather View 32 v60,2013-07-21 16:30:00,
2013-07-21 11:35:00,75.0,58.2,29.95,South,180,5.0,10.0,56,0.00,,,-99.99,Weather View 32 v60,2013-07-21 16:35:00,
2013-07-21 11:40:00,75.0,57.7,29.95,SE,135,5.0,11.0,55,0.00,,,-99.99,Weather View 32 v60,2013-07-21 16:40:00,
2013-07-21 11:50:00,75.0,57.7,29.95,SSE,158,3.0,11.0,55,0.00,,,-99.99,Weather View 32 v60,2013-07-21 16:50:00,
2013-07-21 11:55:00,75.0,58.2,29.95,SSW,202,4.0,11.0,56,0.00,,,-99.99,Weather View 32 v60,2013-07-21 16:55:00,
2013-07-21 12:00:00,75.0,58.2,29.94,South,180,5.0,11.0,56,0.00,,,-99.99,Weather View 32 v60,2013-07-21 17:00:00,
2013-07-21 12:05:00,75.0,58.2,29.94,South,180,3.0,11.0,56,0.00,,,-99.99,Weather View 32 v60,2013-07-21 17:05:00,
2013-07-21 12:10:00,76.0,59.1,29.94,SSW,202,3.0,11.0,56,0.00,,,-99.99,Weather View 32 v60,2013-07-21 17:10:00,
2013-07-21 12:15:00,76.0,58.6,29.93,SSW,202,5.0,11.0,55,0.00,,,-99.99,Weather View 32 v60,2013-07-21 17:15:00,
2013-07-21 12:20:00,76.0,58.1,29.93,SSW,202,4.0,11.0,54,0.00,,,-99.99,Weather View 32 v60,2013-07-21 17:20:00,
2013-07-21 12:25:00,76.0,58.1,29.93,South,180,3.0,11.0,54,0.00,,,-99.99,Weather View 32 v60,2013-07-21 17:25:00,
2013-07-21 12:30:00,76.0,58.1,29.93,SSW,202,6.0,11.0,54,0.00,,,-99.99,Weather View 32 v60,2013-07-21 17:30:00,
2013-07-21 12:35:00,76.0,58.6,29.93,SSW,202,4.0,11.0,55,0.00,,,-99.99,Weather View 32 v60,2013-07-21 17:35:00,
2013-07-21 12:40:00,76.0,58.1,29.93,SW,225,5.0,11.0,54,0.00,,,-99.99,Weather View 32 v60,2013-07-21 17:40:00,
2013-07-21 12:50:00,77.0,59.0,29.92,SE,135,3.0,11.0,54,0.00,,,-99.99,Weather View 32 v60,2013-07-21 17:50:00,
2013-07-21 12:55:00,77.0,59.0,29.92,SSE,158,6.0,11.0,54,0.00,,,-99.99,Weather View 32 v60,2013-07-21 17:55:00,
2013-07-21 13:00:00,78.0,59.4,29.92,SE,135,6.0,11.0,53,0.00,,,-99.99,Weather View 32 v60,2013-07-21 18:00:00,
2013-07-21 13:05:00,78.0,58.9,29.91,SSE,158,4.0,11.0,52,0.00,,,-99.99,Weather View 32 v60,2013-07-21 18:05:00,
2013-07-21 13:10:00,78.0,58.9,29.91,SSW,202,5.0,11.0,52,0.00,,,-99.99,Weather View 32 v60,2013-07-21 18:10:00,
2013-07-21 13:15:00,79.0,59.3,29.91,South,180,6.0,11.0,51,0.00,,,-99.99,Weather View 32 v60,2013-07-21 18:15:00,
2013-07-21 13:20:00,79.0,58.7,29.91,SSW,202,6.0,11.0,50,0.00,,,-99.99,Weather View 32 v60,2013-07-21 18:20:00,
2013-07-21 13:25:00,79.0,59.3,29.91,SSW,202,4.0,11.0,51,0.00,,,-99.99,Weather View 32 v60,2013-07-21 18:25:00,
2013-07-21 13:30:00,79.0,58.7,29.90,SSW,202,4.0,11.0,50,0.00,,,-99.99,Weather View 32 v60,2013-07-21 18:30:00,
2013-07-21 13:35:00,79.0,59.3,29.90,SSW,202,5.0,11.0,51,0.00,,,-99.99,Weather View 32 v60,2013-07-21 18:35:00,
2013-07-21 13:40:00,79.0,58.7,29.90,ESE,112,2.0,10.0,50,0.00,,,-99.99,Weather View 32 v60,2013-07-21 18:40:00,
2013-07-21 13:45:00,78.0,58.3,29.90,SSW,202,3.0,10.0,51,0.00,,,-99.99,Weather View 32 v60,2013-07-21 18:45:00,
2013-07-21 13:50:00,78.0,58.3,29.90,SW,225,3.0,10.0,51,0.00,,,-99.99,Weather View 32 v60,2013-07-21 18:50:00,
2013-07-21 13:55:00,78.0,59.4,29.89,SSE,158,4.0,10.0,53,0.00,,,-99.99,Weather View 32 v60,2013-07-21 18:55:00,
2013-07-21 14:00:00,79.0,60.3,29.90,SSE,158,3.0,10.0,53,0.00,,,-99.99,Weather View 32 v60,2013-07-21 19:00:00,
2013-07-21 14:10:00,79.0,59.3,29.89,South,180,3.0,10.0,51,0.00,,,-99.99,Weather View 32 v60,2013-07-21 19:10:00,
2013-07-21 14:15:00,78.0,58.9,29.89,SSE,158,5.0,10.0,52,0.00,,,-99.99,Weather View 32 v60,2013-07-21 19:15:00,
2013-07-21 14:20:00,78.0,59.4,29.89,SSW,202,1.0,10.0,53,0.00,,,-99.99,Weather View 32 v60,2013-07-21 19:20:00,
2013-07-21 14:25:00,79.0,59.8,29.88,ESE,112,3.0,10.0,52,0.00,,,-99.99,Weather View 32 v60,2013-07-21 19:25:00,
2013-07-21 14:30:00,80.0,59.6,29.88,SSW,202,6.0,10.0,50,0.00,,,-99.99,Weather View 32 v60,2013-07-21 19:30:00,
2013-07-21 14:35:00,81.0,59.4,29.88,SSW,202,3.0,10.0,48,0.00,,,-99.99,Weather View 32 v60,2013-07-21 19:35:00,
2013-07-21 14:40:00,81.0,59.4,29.88,West,270,7.0,10.0,48,0.00,,,-99.99,Weather View 32 v60,2013-07-21 19:40:00,
2013-07-21 14:45:00,82.0,60.3,29.88,NNW,338,3.0,12.0,48,0.00,,,-99.99,Weather View 32 v60,2013-07-21 19:45:00,
2013-07-21 14:50:00,82.0,59.1,29.88,SE,135,3.0,12.0,46,0.00,,,-99.99,Weather View 32 v60,2013-07-21 19:50:00,
2013-07-21 14:55:00,81.0,58.2,29.88,South,180,5.0,12.0,46,0.00,,,-99.99,Weather View 32 v60,2013-07-21 19:55:00,
2013-07-21 15:00:00,80.0,57.9,29.88,SW,225,2.0,12.0,47,0.00,,,-99.99,Weather View 32 v60,2013-07-21 20:00:00,
2013-07-21 15:05:00,80.0,58.5,29.87,SSW,202,5.0,12.0,48,0.00,,,-99.99,Weather View 32 v60,2013-07-21 20:05:00,
2013-07-21 15:10:00,79.0,58.7,29.87,South,180,4.0,12.0,50,0.00,,,-99.99,Weather View 32 v60,2013-07-21 20:10:00,
2013-07-21 15:15:00,79.0,58.7,29.87,SSE,158,1.0,12.0,50,0.00,,,-99.99,Weather View 32 v60,2013-07-21 20:15:00,
2013-07-21 15:25:00,81.0,60.0,29.87,SSW,202,5.0,12.0,49,0.00,,,-99.99,Weather View 32 v60,2013-07-21 20:25:00,
2013-07-21 15:35:00,82.0,59.7,29.87,SSE,158,4.0,12.0,47,0.00,,,-99.99,Weather View 32 v60,2013-07-21 20:35:00,
2013-07-21 15:40:00,82.0,59.7,29.87,SSW,202,6.0,12.0,47,0.00,,,-99.99,Weather View 32 v60,2013-07-21 20:40:00,
2013-07-21 15:45:00,82.0,59.7,29.87,SSW,202,6.0,12.0,47,0.00,,,-99.99,Weather View 32 v60,2013-07-21 20:45:00,
2013-07-21 15:50:00,81.0,58.8,29.87,SE,135,3.0,12.0,47,0.00,,,-99.99,Weather View 32 v60,2013-07-21 20:50:00,
2013-07-21 15:55:00,81.0,58.8,29.87,SSE,158,4.0,12.0,47,0.00,,,-99.99,Weather View 32 v60,2013-07-21 20:55:00,
2013-07-21 16:00:00,81.0,58.8,29.87,SW,225,1.0,12.0,47,0.00,,,-99.99,Weather View 32 v60,2013-07-21 21:00:00,
2013-07-21 16:05:00,80.0,58.5,29.87,SSW,202,2.0,12.0,48,0.00,,,-99.99,Weather View 32 v60,2013-07-21 21:05:00,
2013-07-21 16:10:00,79.0,58.1,29.87,SE,135,3.0,12.0,49,0.00,,,-99.99,Weather View 32 v60,2013-07-21 21:10:00,
2013-07-21 16:15:00,79.0,58.7,29.87,South,180,6.0,12.0,50,0.00,,,-99.99,Weather View 32 v60,2013-07-21 21:15:00,
2013-07-21 16:20:00,79.0,59.3,29.87,SW,225,5.0,12.0,51,0.00,,,-99.99,Weather View 32 v60,2013-07-21 21:20:00,
2013-07-21 16:25:00,80.0,59.6,29.87,SSW,202,3.0,11.0,50,0.00,,,-99.99,Weather View 32 v60,2013-07-21 21:25:00,
2013-07-21 16:30:00,80.0,59.1,29.87,SSW,202,3.0,10.0,49,0.00,,,-99.99,Weather View 32 v60,2013-07-21 21:30:00,
2013-07-21 16:35:00,81.0,59.4,29.87,SSW,202,4.0,10.0,48,0.00,,,-99.99,Weather View 32 v60,2013-07-21 21:35:00,
2013-07-21 16:40:00,81.0,58.8,29.87,SW,225,5.0,10.0,47,0.00,,,-99.99,Weather View 32 v60,2013-07-21 21:40:00,
2013-07-21 16:45:00,81.0,59.4,29.87,SSW,202,5.0,10.0,48,0.00,,,-99.99,Weather View 32 v60,2013-07-21 21:45:00,
2013-07-21 16:50:00,81.0,58.8,29.87,West,270,3.0,10.0,47,0.00,,,-99.99,Weather View 32 v60,2013-07-21 21:50:00,
2013-07-21 16:55:00,81.0,59.4,29.87,SW,225,5.0,10.0,48,0.00,,,-99.99,Weather View 32 v60,2013-07-21 21:55:00,
2013-07-21 17:00:00,81.0,59.4,29.87,WSW,248,1.0,10.0,48,0.00,,,-99.99,Weather View 32 v60,2013-07-21 22:00:00,
2013-07-21 17:05:00,81.0,59.4,29.87,SSE,158,3.0,10.0,48,0.00,,,-99.99,Weather View 32 v60,2013-07-21 22:05:00,
2013-07-21 17:15:00,81.0,58.8,29.87,SSE,158,3.0,10.0,47,0.00,,,-99.99,Weather View 32 v60,2013-07-21 22:15:00,
2013-07-21 17:20:00,81.0,58.8,29.87,South,180,6.0,10.0,47,0.00,,,-99.99,Weather View 32 v60,2013-07-21 22:20:00,
2013-07-21 17:25:00,81.0,58.8,29.86,South,180,3.0,10.0,47,0.00,,,-99.99,Weather View 32 v60,2013-07-21 22:25:00,
2013-07-21 17:30:00,81.0,58.8,29.86,SSW,202,1.0,10.0,47,0.00,,,-99.99,Weather View 32 v60,2013-07-21 22:30:00,
2013-07-21 17:35:00,81.0,58.8,29.86,SSE,158,3.0,10.0,47,0.00,,,-99.99,Weather View 32 v60,2013-07-21 22:35:00,
2013-07-21 17:40:00,81.0,59.4,29.86,South,180,3.0,10.0,48,0.00,,,-99.99,Weather View 32 v60,2013-07-21 22:40:00,
2013-07-21 17:45:00,80.0,57.9,29.86,SW,225,3.0,9.0,47,0.00,,,-99.99,Weather View 32 v60,2013-07-21 22:45:00,
2013-07-21 17:50:00,81.0,59.4,29.85,SSE,158,3.0,9.0,48,0.00,,,-99.99,Weather View 32 v60,2013-07-21 22:50:00,
2013-07-21 17:55:00,81.0,59.4,29.85,SSW,202,3.0,8.0,48,0.00,,,-99.99,Weather View 32 v60,2013-07-21 22:55:00,
2013-07-21 18:05:00,80.0,59.1,29.85,SSW,202,5.0,10.0,49,0.00,,,-99.99,Weather View 32 v60,2013-07-21 23:05:00,
2013-07-21 18:10:00,80.0,59.6,29.85,SSW,202,3.0,10.0,50,0.00,,,-99.99,Weather View 32 v60,2013-07-21 23:10:00,
2013-07-21 18:15:00,80.0,59.6,29.85,SE,135,5.0,10.0,50,0.00,,,-99.99,Weather View 32 v60,2013-07-21 23:15:00,
2013-07-21 18:25:00,80.0,59.6,29.85,SW,225,5.0,10.0,50,0.00,,,-99.99,Weather View 32 v60,2013-07-21 23:25:00,
2013-07-21 18:30:00,80.0,59.6,29.85,SSW,202,2.0,10.0,50,0.00,,,-99.99,Weather View 32 v60,2013-07-21 23:30:00,
2013-07-21 18:35:00,80.0,59.6,29.85,SW,225,3.0,10.0,50,0.00,,,-99.99,Weather View 32 v60,2013-07-21 23:35:00,
2013-07-21 18:40:00,80.0,59.6,29.85,SSW,202,3.0,10.0,50,0.00,,,-99.99,Weather View 32 v60,2013-07-21 23:40:00,
2013-07-21 18:45:00,79.0,59.3,29.85,SSW,202,3.0,10.0,51,0.00,,,-99.99,Weather View 32 v60,2013-07-21 23:45:00,
2013-07-21 18:55:00,79.0,59.8,29.85,SSE,158,5.0,10.0,52,0.00,,,-99.99,Weather View 32 v60,2013-07-21 23:55:00,
2013-07-21 19:00:00,78.0,59.4,29.85,SSE,158,5.0,10.0,53,0.00,,,-99.99,Weather View 32 v60,2013-07-22 00:00:00,
2013-07-21 19:05:00,78.0,59.4,29.85,South,180,1.0,9.0,53,0.00,,,-99.99,Weather View 32 v60,2013-07-22 00:05:00,
2013-07-21 19:10:00,77.0,59.0,29.85,SSW,202,4.0,9.0,54,0.00,,,-99.99,Weather View 32 v60,2013-07-22 00:10:00,
2013-07-21 19:15:00,77.0,59.5,29.85,ESE,112,1.0,9.0,55,0.00,,,-99.99,Weather View 32 v60,2013-07-22 00:15:00,
2013-07-21 19:20:00,77.0,60.0,29.85,SSE,158,1.0,11.0,56,0.00,,,-99.99,Weather View 32 v60,2013-07-22 00:20:00,
2013-07-21 19:25:00,77.0,60.5,29.85,South,180,5.0,11.0,57,0.00,,,-99.99,Weather View 32 v60,2013-07-22 00:25:00,
2013-07-21 19:30:00,76.0,59.6,29.85,South,180,4.0,11.0,57,0.00,,,-99.99,Weather View 32 v60,2013-07-22 00:30:00,
2013-07-21 19:35:00,75.0,59.2,29.84,SSW,202,6.0,11.0,58,0.00,,,-99.99,Weather View 32 v60,2013-07-22 00:35:00,
2013-07-21 19:40:00,75.0,59.7,29.84,South,180,4.0,11.0,59,0.00,,,-99.99,Weather View 32 v60,2013-07-22 00:40:00,
2013-07-21 19:45:00,75.0,59.7,29.84,South,180,3.0,11.0,59,0.00,,,-99.99,Weather View 32 v60,2013-07-22 00:45:00,
2013-07-21 19:50:00,75.0,59.7,29.84,SSW,202,3.0,11.0,59,0.00,,,-99.99,Weather View 32 v60,2013-07-22 00:50:00,
2013-07-21 19:55:00,75.0,59.7,29.84,South,180,4.0,11.0,59,0.00,,,-99.99,Weather View 32 v60,2013-07-22 00:55:00,
2013-07-21 20:00:00,75.0,60.1,29.84,SSE,158,4.0,11.0,60,0.00,,,-99.99,Weather View 32 v60,2013-07-22 01:00:00,
2013-07-21 20:05:00,74.0,59.2,29.84,SE,135,3.0,11.0,60,0.00,,,-99.99,Weather View 32 v60,2013-07-22 01:05:00,
2013-07-21 20:10:00,74.0,59.2,29.84,SSW,202,1.0,11.0,60,0.00,,,-99.99,Weather View 32 v60,2013-07-22 01:10:00,
2013-07-21 20:15:00,74.0,59.7,29.84,South,180,1.0,11.0,61,0.00,,,-99.99,Weather View 32 v60,2013-07-22 01:15:00,
2013-07-21 20:20:00,74.0,60.1,29.84,SSW,202,3.0,10.0,62,0.00,,,-99.99,Weather View 32 v60,2013-07-22 01:20:00,
2013-07-21 20:25:00,73.0,59.2,29.85,SSW,202,1.0,10.0,62,0.00,,,-99.99,Weather View 32 v60,2013-07-22 01:25:00,
2013-07-21 20:35:00,72.0,59.1,29.85,WSW,248,3.0,10.0,64,0.00,,,-99.99,Weather View 32 v60,2013-07-22 01:35:00,
2013-07-21 20:45:00,72.0,59.1,29.85,SSW,202,1.0,10.0,64,0.00,,,-99.99,Weather View 32 v60,2013-07-22 01:45:00,
2013-07-21 20:50:00,71.0,58.6,29.86,SSW,202,1.0,8.0,65,0.00,,,-99.99,Weather View 32 v60,2013-07-22 01:50:00,
2013-07-21 20:55:00,71.0,59.0,29.86,SSE,158,1.0,7.0,66,0.00,,,-99.99,Weather View 32 v60,2013-07-22 01:55:00,
2013-07-21 21:00:00,71.0,59.0,29.86,South,180,1.0,7.0,66,0.00,,,-99.99,Weather View 32 v60,2013-07-22 02:00:00,
2013-07-21 21:05:00,71.0,59.5,29.86,SSW,202,2.0,6.0,67,0.00,,,-99.99,Weather View 32 v60,2013-07-22 02:05:00,
2013-07-21 21:10:00,70.0,58.9,29.86,SSW,202,4.0,6.0,68,0.00,,,-99.99,Weather View 32 v60,2013-07-22 02:10:00,
2013-07-21 21:15:00,70.0,58.9,29.86,SSE,158,3.0,6.0,68,0.00,,,-99.99,Weather View 32 v60,2013-07-22 02:15:00,
2013-07-21 21:20:00,70.0,59.3,29.86,SSW,202,3.0,6.0,69,0.00,,,-99.99,Weather View 32 v60,2013-07-22 02:20:00,
2013-07-21 21:25:00,70.0,59.3,29.86,SSE,158,3.0,6.0,69,0.00,,,-99.99,Weather View 32 v60,2013-07-22 02:25:00,
2013-07-21 21:30:00,70.0,59.3,29.86,WSW,248,2.0,6.0,69,0.00,,,-99.99,Weather View 32 v60,2013-07-22 02:30:00,
2013-07-21 21:35:00,70.0,59.7,29.86,South,180,3.0,6.0,70,0.00,,,-99.99,Weather View 32 v60,2013-07-22 02:35:00,
2013-07-21 21:40:00,70.0,59.7,29.86,SSW,202,3.0,6.0,70,0.00,,,-99.99,Weather View 32 v60,2013-07-22 02:40:00,
2013-07-21 21:45:00,70.0,59.7,29.86,SSW,202,1.0,6.0,70,0.00,,,-99.99,Weather View 32 v60,2013-07-22 02:45:00,
2013-07-21 21:50:00,69.0,59.2,29.86,South,180,2.0,6.0,71,0.00,,,-99.99,Weather View 32 v60,2013-07-22 02:50:00,
2013-07-21 22:00:00,69.0,59.2,29.85,South,180,1.0,6.0,71,0.00,,,-99.99,Weather View 32 v60,2013-07-22 03:00:00,
2013-07-21 22:05:00,69.0,59.6,29.85,SSW,202,2.0,6.0,72,0.00,,,-99.99,Weather View 32 v60,2013-07-22 03:05:00,
2013-07-21 22:10:00,69.0,59.6,29.84,SSE,158,3.0,6.0,72,0.00,,,-99.99,Weather View 32 v60,2013-07-22 03:10:00,
2013-07-21 22:15:00,69.0,59.6,29.84,SSE,158,4.0,6.0,72,0.00,,,-99.99,Weather View 32 v60,2013-07-22 03:15:00,
2013-07-21 22:20:00,69.0,60.0,29.84,ESE,112,2.0,6.0,73,0.00,,,-99.99,Weather View 32 v60,2013-07-22 03:20:00,
2013-07-21 22:25:00,68.0,59.0,29.84,SSE,158,3.0,6.0,73,0.00,,,-99.99,Weather View 32 v60,2013-07-22 03:25:00,
2013-07-21 22:30:00,68.0,59.0,29.84,SSW,202,1.0,6.0,73,0.00,,,-99.99,Weather View 32 v60,2013-07-22 03:30:00,
2013-07-21 22:35:00,68.0,59.4,29.84,South,180,5.0,6.0,74,0.00,,,-99.99,Weather View 32 v60,2013-07-22 03:35:00,
2013-07-21 22:40:00,68.0,59.4,29.84,SSW,202,3.0,6.0,74,0.00,,,-99.99,Weather View 32 v60,2013-07-22 03:40:00,
2013-07-21 22:45:00,68.0,59.8,29.84,South,180,3.0,6.0,75,0.00,,,-99.99,Weather View 32 v60,2013-07-22 03:45:00,
2013-07-21 22:50:00,68.0,59.8,29.84,SSW,202,4.0,6.0,75,0.00,,,-99.99,Weather View 32 v60,2013-07-22 03:50:00,
2013-07-21 22:55:00,68.0,59.8,29.84,SSW,202,1.0,6.0,75,0.00,,,-99.99,Weather View 32 v60,2013-07-22 03:55:00,
2013-07-21 23:00:00,67.0,58.8,29.85,SSW,202,2.0,6.0,75,0.00,,,-99.99,Weather View 32 v60,2013-07-22 04:00:00,
2013-07-21 23:05:00,67.0,59.2,29.84,SSW,202,1.0,6.0,76,0.00,,,-99.99,Weather View 32 v60,2013-07-22 04:05:00,
2013-07-21 23:10:00,67.0,59.2,29.84,South,180,3.0,6.0,76,0.00,,,-99.99,Weather View 32 v60,2013-07-22 04:10:00,
2013-07-21 23:15:00,67.0,59.5,29.84,SSW,202,6.0,6.0,77,0.00,,,-99.99,Weather View 32 v60,2013-07-22 04:15:00,
2013-07-21 23:20:00,67.0,59.5,29.84,SSW,202,4.0,8.0,77,0.00,,,-99.99,Weather View 32 v60,2013-07-22 04:20:00,
2013-07-21 23:25:00,67.0,59.9,29.84,SW,225,3.0,8.0,78,0.00,,,-99.99,Weather View 32 v60,2013-07-22 04:25:00,
2013-07-21 23:30:00,67.0,59.9,29.84,SSW,202,4.0,10.0,78,0.00,,,-99.99,Weather View 32 v60,2013-07-22 04:30:00,
2013-07-21 23:35:00,67.0,59.9,29.84,ESE,112,3.0,10.0,78,0.00,,,-99.99,Weather View 32 v60,2013-07-22 04:35:00,
2013-07-21 23:40:00,67.0,60.2,29.83,South,180,6.0,11.0,79,0.00,,,-99.99,Weather View 32 v60,2013-07-22 04:40:00,
2013-07-21 23:45:00,67.0,60.2,29.83,WNW,292,5.0,11.0,79,0.00,,,-99.99,Weather View 32 v60,2013-07-22 04:45:00,
2013-07-21 23:55:00,67.0,60.2,29.83,SSW,202,3.0,11.0,79,0.00,,,-99.99,Weather View 32 v60,2013-07-22 04:55:00,